Retour au catalogue

MKA PN2

RELEK

ActifScienceSSO
NORAD 40070·PAYLOAD·🇷🇺 Russia

Lancé Jul 8, 2014 depuis Baikonur Cosmodrome

Loading…

Prochains Passages (prochaines 24 heures)

TLE

FraisSource: Space-Track

Époque: Sep 14, 2026, 09:10 UTC

1 40070U 14037B   26257.38260130  .00000235  00000-0  58015-4 0  9994
2 40070  98.0810 232.4260 0130644 151.0051 209.8487 14.55732814646069

Suivez MKA PN2 en temps réel avec AllMySat

Download on the App Store